GFSFLT1_850_thetae_021.txt.gz
Theta_e
310 310 310 314 321 326 329 332 338 340 341 341 340 338 339 345 345 345 342 343 338 338 338 338 338 337 337 338 336 331 328 331 332
311 310 310 310 310 311 316 324 328 332 338 341 342 339 340 343 343 344 345 340 338 338 338 338 339 340 339 339 337 332 328 332 332
311 310 309 309 309 309 309 310 313 322 332 341 340 340 341 342 342 341 341 338 338 338 337 337 338 338 339 339 338 332 328 332 331
312 312 310 309 308 308 309 309 309 311 317 325 335 339 340 343 342 343 338 338 334 336 337 336 339 338 338 338 340 336 332 330 332
313 313 311 309 308 308 309 309 309 309 310 314 323 334 338 343 340 337 335 338 337 335 333 337 336 339 338 337 340 339 336 331 331
313 313 312 310 308 308 308 308 308 308 310 311 316 326 332 334 335 332 329 326 336 334 336 338 336 337 339 337 338 337 337 335 330
312 314 314 312 309 308 307 307 306 307 309 310 312 317 321 330 329 319 322 320 326 331 335 336 337 336 334 337 339 339 338 336 335
311 313 315 314 310 307 306 306 306 306 306 306 307 310 315 321 323 315 316 319 326 331 333 334 336 337 336 336 337 338 340 338 336
311 312 313 313 311 308 306 306 305 305 305 306 306 306 307 312 316 309 311 313 317 325 328 332 333 335 335 336 336 337 338 340 337
312 312 313 314 311 308 306 305 305 305 305 305 304 305 304 304 305 304 304 306 309 313 318 322 325 332 332 333 334 334 337 337 339
312 312 312 313 313 309 306 305 305 305 306 305 304 304 304 303 303 303 303 303 303 303 306 310 314 319 327 330 330 331 334 336 336
312 312 312 312 313 310 307 305 304 305 304 306 305 305 303 303 303 302 302 302 302 302 302 302 302 303 306 313 319 324 328 333 334
312 312 312 312 312 311 307 305 304 304 305 307 307 306 305 304 303 302 301 301 301 301 302 302 302 302 302 303 303 303 304 315 330
311 311 311 312 312 311 308 305 304 306 306 305 305 306 305 305 305 304 302 302 301 301 301 302 302 302 302 303 303 303 303 303 303
313 311 311 311 311 311 309 305 305 304 304 303 305 306 305 303 304 305 305 305 303 301 301 301 301 301 302 301 302 303 303 303 303
316 311 310 311 311 311 308 305 305 304 304 303 307 307 306 305 305 306 305 304 304 303 302 302 302 301 302 300 301 301 302 303 303
316 312 310 310 311 310 309 306 304 305 304 305 305 308 308 306 305 305 304 304 304 303 304 303 303 302 302 302 301 300 300 301 303
315 312 310 310 310 310 309 306 303 305 306 302 304 307 309 307 305 305 305 304 304 304 304 303 303 303 303 303 303 303 299 299 300
315 311 310 309 310 309 309 306 304 301 305 304 302 302 303 305 305 305 305 304 303 303 303 303 303 303 303 303 303 301 299 299 299
315 311 310 309 309 309 308 306 304 302 302 305 305 304 304 304 304 304 305 304 303 303 302 302 303 303 303 303 303 303 302 300 298

GFSFLT1_850_thetae_024.txt.gz
Theta_e
311 310 310 310 312 319 325 329 332 335 339 340 338 340 343 343 342 342 342 341 338 337 337 337 338 338 338 338 336 330 327 329 331
311 310 310 310 310 310 310 314 321 328 335 339 340 339 340 341 341 342 342 339 339 338 337 337 338 339 339 339 338 332 328 329 330
312 312 310 309 309 309 309 309 310 316 328 332 338 339 340 339 340 340 339 338 337 337 337 336 338 337 338 338 339 335 332 329 330
312 313 312 310 309 309 309 309 309 310 313 320 331 339 340 340 338 337 339 338 337 336 334 336 336 339 338 338 339 340 335 332 330
312 313 314 312 310 309 309 309 309 309 309 312 321 331 338 337 336 333 330 337 335 337 335 335 336 336 338 336 340 338 337 334 331
311 312 314 314 312 309 309 309 308 309 309 310 317 327 324 335 334 330 326 326 331 333 334 337 337 337 340 337 339 337 337 336 334
311 311 313 314 314 311 308 308 308 308 309 309 312 316 319 331 326 321 317 320 320 324 331 334 335 337 334 335 338 340 339 338 336
312 310 312 314 314 314 310 308 307 307 306 306 307 310 314 320 314 313 312 316 318 325 330 330 330 335 336 335 336 337 339 338 337
313 311 311 312 314 313 311 309 307 307 307 307 307 307 308 314 309 308 308 309 312 315 319 326 330 328 333 335 336 336 336 339 338
313 312 311 311 313 314 312 309 307 307 306 306 306 306 306 306 306 305 305 304 305 307 310 314 318 323 328 329 331 334 334 336 337
313 312 312 311 312 313 313 310 307 306 306 307 306 305 305 305 304 304 304 304 304 304 304 304 306 310 314 318 324 326 330 332 334
313 313 312 311 311 312 313 311 307 306 305 306 306 306 305 304 304 304 304 303 303 303 303 303 302 302 302 303 306 310 316 323 329
312 312 312 312 311 312 313 312 308 306 306 306 307 306 306 305 304 304 303 302 302 302 302 302 302 302 302 302 303 303 303 303 306
312 312 311 311 311 311 312 312 310 307 306 305 305 305 306 305 305 305 304 303 303 302 301 302 301 302 302 302 303 303 303 303 303
311 311 311 311 311 311 311 312 311 307 306 305 305 305 305 305 304 305 305 305 304 304 303 302 301 302 302 302 302 302 302 302 303
311 311 311 312 311 311 311 311 311 309 305 304 304 306 306 306 305 304 304 304 304 304 303 302 302 302 302 301 301 301 301 301 301
312 311 312 313 312 310 311 311 311 308 306 305 306 305 307 307 306 305 305 304 304 304 303 304 304 303 302 302 302 301 301 301 300
314 313 313 314 312 310 310 311 311 308 306 304 304 307 306 308 307 306 305 304 304 303 303 303 303 303 303 303 302 302 302 301 300
315 314 315 314 312 310 310 310 310 307 305 305 303 303 306 306 305 305 305 305 304 304 303 303 303 302 302 303 303 302 302 303 301
315 315 315 314 312 311 310 310 310 309 304 305 304 303 302 302 302 303 304 304 304 303 303 303 301 302 302 303 302 302 303 303 302

GFSFLT1_850_thetae_030.txt.gz
Theta_e
311 310 310 311 315 317 321 326 333 337 337 338 339 341 340 340 339 339 341 338 336 336 336 337 338 339 338 338 333 330 329 327 323
312 311 310 310 310 310 312 318 326 335 337 336 337 339 340 339 337 337 338 338 337 338 336 336 337 337 337 338 336 334 331 328 321
312 313 312 310 310 309 309 310 319 332 336 336 334 335 336 335 333 335 335 335 333 334 335 335 335 337 337 337 338 338 333 331 324
312 312 313 312 310 310 309 309 310 313 323 334 334 334 334 332 326 327 331 335 336 334 333 330 334 336 338 337 338 338 335 333 328
311 311 313 313 312 310 310 309 309 311 314 324 330 335 334 332 325 323 323 331 329 331 334 336 335 335 337 336 339 336 335 334 332
311 311 312 313 313 311 310 309 309 309 311 317 320 323 328 325 322 324 326 323 323 331 332 334 336 337 338 338 339 338 337 336 333
312 311 311 313 314 313 311 309 309 309 310 313 314 317 320 320 322 324 324 317 315 316 325 335 333 333 333 335 338 338 338 338 336
313 311 310 311 313 314 313 310 309 309 310 311 313 314 316 317 319 319 316 312 313 314 320 326 328 331 333 334 333 336 338 336 335
313 313 311 310 311 313 313 312 310 308 308 308 310 310 311 312 312 312 310 308 309 312 315 320 322 324 323 331 334 334 337 337 335
313 313 312 310 311 311 313 313 312 309 307 307 308 308 309 309 309 309 307 306 305 306 309 312 317 320 321 319 326 333 334 335 334
313 313 312 311 311 311 311 312 312 310 308 307 307 307 307 307 306 306 306 305 305 304 303 303 305 308 311 313 313 317 326 332 333
322 313 313 312 311 311 311 311 312 312 309 307 307 306 306 306 305 305 305 305 304 303 303 302 302 302 302 302 303 305 310 318 322
325 321 314 312 312 311 311 311 311 311 311 309 307 306 307 307 306 306 305 305 304 303 302 301 301 302 302 302 302 302 302 302 303
328 324 318 313 312 312 311 311 310 310 311 310 308 306 307 307 306 306 306 305 305 304 304 303 302 301 302 302 302 302 302 302 303
328 327 324 317 313 312 311 311 310 310 310 309 308 307 306 306 305 306 306 305 305 305 304 304 303 302 302 302 302 302 302 302 302
328 325 325 320 316 313 312 311 310 310 309 309 309 307 306 305 305 305 306 305 305 305 304 304 303 302 303 302 302 301 301 301 302
325 327 325 322 319 316 312 311 311 310 309 309 308 307 307 305 305 306 306 305 305 305 304 304 303 303 303 302 302 302 302 301 301
323 324 323 323 320 318 315 312 311 310 309 309 308 307 307 307 307 306 307 306 305 305 304 304 303 303 303 303 302 301 302 301 301
318 319 322 321 321 319 318 314 311 310 310 308 308 307 307 307 307 307 307 306 305 305 304 304 304 303 303 302 302 302 302 301 302
320 319 318 319 320 321 319 316 313 311 311 309 309 308 307 305 306 306 307 306 305 305 304 304 304 303 302 301 302 301 301 302 303

GFSFLT1_850_thetae_036.txt.gz
Theta_e
314 317 318 322 324 330 333 335 339 339 339 338 339 340 340 336 334 337 339 337 339 338 335 335 337 337 336 336 335 331 322 331 329
310 310 311 312 316 321 325 333 340 337 337 337 337 338 338 336 334 332 334 336 339 337 335 335 337 338 337 336 336 332 327 325 329
311 311 310 309 309 311 321 327 337 335 336 335 337 337 337 337 336 334 332 333 335 334 333 333 333 336 338 336 337 333 331 323 324
311 311 311 310 309 309 310 323 336 338 335 335 336 336 337 336 334 331 325 326 331 333 332 330 331 334 337 336 336 334 332 328 324
311 311 311 311 310 309 309 310 340 339 338 337 335 335 336 335 333 330 322 332 334 334 333 330 333 332 333 337 336 335 334 331 325
312 311 311 311 311 310 309 309 310 316 316 330 332 334 335 336 333 331 323 322 322 327 333 335 335 336 336 338 338 335 336 334 329
311 312 311 311 311 311 310 309 309 309 312 318 326 327 331 333 333 329 324 324 323 319 329 332 333 335 335 337 339 338 335 336 335
315 312 312 311 311 311 311 310 309 309 310 312 318 323 325 326 327 324 324 323 321 315 316 320 332 332 333 334 337 338 337 334 333
322 314 312 312 311 310 311 311 310 309 309 310 312 316 319 320 319 318 320 316 313 309 310 315 321 330 332 333 334 336 338 335 334
322 320 315 313 312 311 310 311 311 310 309 308 308 309 311 312 312 313 313 311 309 307 306 311 317 322 323 322 330 332 335 334 335
326 323 318 315 313 312 311 310 310 311 310 309 307 307 307 308 308 308 308 308 306 305 305 306 308 312 314 316 318 324 332 333 333
331 327 322 320 317 313 312 311 310 310 310 310 309 308 307 306 306 306 306 306 305 305 305 304 303 303 304 305 308 311 315 324 331
335 332 329 324 322 318 315 312 311 311 310 310 310 309 308 307 306 306 306 306 306 305 305 304 302 302 302 302 302 302 303 305 311
336 333 330 326 324 323 319 315 312 311 311 310 310 309 309 308 307 307 306 306 306 306 305 304 304 302 301 301 301 302 302 302 302
336 335 330 325 322 320 320 320 316 313 312 311 310 309 309 309 308 308 307 306 306 306 305 305 305 304 303 302 301 301 301 302 302
331 334 331 327 324 321 318 317 316 317 314 311 311 310 309 309 309 309 308 307 306 305 306 305 305 304 303 302 302 302 303 302 302
320 322 326 327 322 322 319 317 315 317 316 313 311 309 310 310 309 309 309 308 306 305 306 305 305 304 303 303 303 303 302 303 303
310 313 317 323 320 317 317 315 314 314 316 314 312 309 309 309 309 309 309 308 307 305 305 306 305 304 304 303 303 303 303 302 301
304 305 308 312 315 317 318 313 314 313 313 314 313 313 312 309 309 309 309 308 308 306 306 306 305 304 304 304 303 303 302 302 301
304 304 304 304 306 311 314 315 313 312 312 312 313 314 312 311 309 309 308 309 308 308 307 306 306 305 304 304 304 302 302 301 301

GFSFLT1_850_thetae_042.txt.gz
Theta_e
314 318 321 334 332 338 337 339 338 339 338 339 340 341 338 339 342 344 340 342 340 335 334 335 337 338 335 335 331 325 328 327 333
311 311 312 311 317 321 326 338 338 338 339 337 338 341 339 345 340 338 340 341 338 339 335 332 335 338 336 335 332 327 324 331 332
311 311 311 310 310 311 318 330 338 335 337 337 338 338 338 340 339 337 336 326 330 332 332 330 331 333 337 335 333 331 323 331 336
311 311 311 311 310 309 311 322 328 336 333 336 336 338 337 338 337 336 335 323 326 332 334 333 329 330 334 336 334 333 329 323 332
311 311 311 311 311 310 309 311 318 329 335 334 336 337 337 337 336 336 335 323 333 333 336 334 331 326 331 335 336 334 333 327 324
312 312 311 310 311 311 310 309 309 313 324 322 333 335 340 337 336 335 332 328 323 331 332 332 335 337 336 336 339 334 334 331 327
316 312 311 311 310 310 311 311 310 310 328 327 313 322 330 336 335 334 331 328 323 321 320 323 331 334 336 336 337 338 335 334 330
326 321 316 312 311 311 310 311 311 310 311 316 323 328 331 332 326 333 326 327 323 321 320 317 326 331 333 335 337 339 337 334 333
331 328 323 319 314 312 311 310 310 310 310 312 318 326 328 330 331 331 323 321 320 318 315 313 316 319 319 333 333 337 339 336 335
336 331 328 323 319 316 314 312 310 310 310 310 311 319 323 325 327 327 315 315 314 313 310 308 309 313 318 325 329 334 336 336 335
338 336 333 329 323 319 316 314 313 311 310 310 310 311 316 318 316 313 311 310 310 309 308 307 306 310 317 319 320 323 333 335 335
340 337 336 333 328 322 318 316 315 312 311 310 310 310 309 310 309 308 307 307 307 307 307 306 306 306 308 310 314 316 319 328 331
336 338 336 336 334 331 323 317 317 316 313 312 311 310 310 310 309 309 309 308 307 307 306 306 306 305 304 304 305 307 311 315 320
328 332 335 334 335 334 330 322 318 316 315 314 312 311 310 310 309 309 309 309 308 308 307 307 306 306 305 303 303 302 302 303 306
314 318 321 324 328 331 331 327 321 318 316 314 312 312 311 310 310 309 309 309 309 308 308 308 307 306 306 305 304 302 302 302 302
304 307 311 314 316 319 326 328 324 320 317 314 314 313 313 312 313 311 309 309 309 308 308 308 307 307 306 306 305 304 303 302 302
306 307 308 309 311 313 314 320 323 323 319 315 315 316 317 314 313 314 314 312 310 309 309 308 308 306 306 306 306 304 304 313 306
306 307 307 308 309 310 312 314 316 319 319 317 316 315 317 320 316 314 316 317 312 310 309 308 308 307 306 306 306 305 303 305 309
306 306 306 306 307 308 309 310 312 313 316 316 316 315 315 318 319 314 314 313 312 310 309 308 308 307 306 306 306 306 304 303 303
304 304 303 304 304 305 307 308 308 311 311 313 313 315 315 311 311 316 314 311 311 310 313 310 308 308 306 306 306 306 305 304 304

GFSFLT1_850_thetae_045.txt.gz
Theta_e
311 313 314 315 320 333 335 338 339 340 339 338 340 340 338 341 341 342 342 342 337 335 334 334 336 338 335 334 327 325 329 333 333
311 311 311 311 312 318 324 334 337 340 340 337 338 341 339 340 339 338 340 339 335 338 335 331 330 334 336 334 331 323 330 331 330
311 311 310 310 310 310 314 325 332 335 337 338 337 339 337 341 338 337 337 330 324 329 330 329 328 330 335 335 333 328 326 335 333
311 311 310 310 311 310 309 316 324 330 332 334 335 337 338 339 338 336 338 334 325 327 334 334 331 327 331 336 333 332 324 334 335
312 311 311 311 311 311 310 310 316 324 333 331 333 334 337 338 338 337 336 330 330 334 336 334 332 328 329 336 336 333 330 325 330
328 321 312 311 311 311 311 310 310 315 323 321 329 333 338 338 336 336 335 330 324 328 332 330 333 336 334 334 338 334 333 328 327
333 323 317 313 312 311 311 311 311 310 317 334 329 317 335 337 334 335 335 329 325 321 320 321 323 331 335 336 336 339 335 332 328
335 332 329 326 322 314 314 312 311 315 321 325 327 328 331 333 334 333 333 327 323 320 319 319 317 320 329 333 335 338 337 335 332
338 335 332 329 327 324 322 320 316 311 311 314 321 324 328 330 331 332 332 325 321 318 318 317 314 315 316 327 333 336 339 337 334
341 339 336 332 328 326 323 320 319 316 312 314 315 317 322 327 329 330 330 325 317 316 314 312 310 309 310 315 321 332 335 339 336
339 339 338 338 333 328 325 321 318 317 316 314 313 314 316 321 324 326 326 316 311 311 311 310 309 307 308 310 319 321 332 335 335
338 338 339 337 337 334 328 324 320 317 316 315 313 313 313 315 319 320 318 312 309 308 308 308 308 307 307 308 312 315 319 330 334
325 330 334 336 335 336 331 326 322 319 317 316 314 313 312 312 315 317 316 311 311 310 308 307 307 307 307 307 307 309 311 315 324
312 316 321 324 327 331 332 331 329 322 319 318 316 315 313 312 312 314 314 311 309 309 309 308 307 307 307 307 306 305 305 306 310
310 310 312 315 318 321 324 328 330 328 322 319 318 316 314 313 312 312 313 312 310 309 308 309 309 308 307 307 307 306 304 303 303
307 309 309 310 311 314 318 320 323 329 327 321 319 317 316 315 313 313 312 312 311 310 309 308 308 309 308 307 307 307 307 304 303
306 307 308 309 309 310 311 314 318 318 325 324 321 319 318 317 316 314 313 312 311 311 310 309 309 308 309 308 307 306 306 306 304
305 306 307 307 307 308 309 310 312 315 315 321 321 317 318 321 319 318 315 313 312 312 313 311 310 309 309 308 308 306 306 305 306
305 306 306 305 305 305 306 307 309 310 313 315 316 319 318 316 320 319 317 315 314 313 313 313 311 310 309 309 308 307 306 305 305
305 305 305 305 305 304 305 305 306 308 309 311 314 315 316 317 314 314 319 316 314 313 312 312 310 310 310 309 308 307 306 306 304

GFSFLT1_850_thetae_048.txt.gz
Theta_e
311 312 314 315 316 332 332 337 338 337 337 337 340 338 340 339 340 340 339 341 337 336 333 331 332 335 332 330 322 325 331 332 326
311 311 310 310 311 315 321 332 337 336 338 335 335 340 340 338 338 337 335 337 336 337 334 330 327 330 334 331 326 327 329 328 324
311 311 310 310 310 310 311 318 329 335 335 338 335 338 337 340 338 336 336 332 322 326 328 328 327 327 333 332 330 325 333 332 330
312 311 311 310 310 311 310 310 318 326 332 331 334 335 337 338 337 337 336 336 325 320 330 332 330 325 329 334 331 328 330 334 333
325 315 312 311 311 310 311 310 311 315 322 334 327 331 333 337 338 335 336 335 327 335 334 333 332 329 325 335 334 331 326 327 335
335 330 324 315 312 311 310 311 311 311 313 319 316 320 331 336 338 335 336 335 330 322 331 329 328 334 330 333 337 333 330 326 326
337 334 331 327 320 313 311 311 310 310 310 312 331 330 319 330 333 336 335 335 333 325 320 323 324 326 334 337 335 338 334 329 328
339 337 334 332 327 326 322 318 314 311 311 321 326 327 324 332 329 331 332 333 331 325 321 319 319 317 322 333 334 337 336 333 329
341 339 336 335 333 329 325 323 321 319 315 312 314 318 324 327 331 332 331 329 326 321 319 318 317 316 315 322 332 335 338 336 333
339 339 339 337 335 333 329 325 321 320 318 316 313 315 320 323 328 330 330 331 327 320 315 315 315 312 311 313 319 330 336 338 336
338 337 337 337 337 335 333 328 325 320 318 317 315 314 314 318 323 326 328 327 321 314 311 311 312 310 309 309 311 313 331 336 337
325 330 335 336 336 336 336 332 327 324 319 317 316 314 314 312 317 321 322 320 313 311 309 309 309 309 308 308 309 312 321 329 334
308 310 317 321 325 327 332 335 332 326 323 319 318 316 314 313 312 315 318 316 312 310 310 309 308 308 307 308 308 310 313 316 327
307 307 307 309 315 316 318 321 330 331 329 324 320 318 316 314 313 312 315 316 313 310 309 309 309 308 307 307 307 307 308 310 314
306 306 306 306 308 310 313 316 316 325 330 329 325 320 319 317 314 313 312 314 313 312 310 309 309 309 308 307 307 307 306 306 306
305 304 305 306 308 308 309 310 312 313 312 323 329 326 322 319 316 315 313 312 313 312 311 309 309 309 309 308 307 307 307 306 305
305 305 305 306 307 307 308 308 309 311 313 311 315 324 324 324 318 317 315 314 312 312 312 311 309 309 309 308 308 308 307 307 306
305 305 305 305 305 306 306 306 307 308 309 312 312 319 319 320 321 320 319 315 315 312 312 312 311 310 309 309 308 308 307 307 307
304 305 305 305 305 305 305 305 305 306 307 310 312 312 314 318 318 320 319 317 314 315 312 312 312 313 311 309 309 309 308 307 306
303 303 303 304 304 305 305 305 304 304 304 305 308 309 311 311 314 317 319 318 317 314 314 313 312 313 313 311 310 309 308 307 306